Wind_Speed
76 77 78 80 81 83 86 85 85 89 94 94 93 93 99 99 100 108 107 111 111 106 105 105 99 93 86 86 84 80 79 80 72 58 51 51 56 54 50 43 38 34 29 33
76 76 77 78 80 82 84 84 85 87 89 82 80 86 89 94 95 96 100 109 110 109 109 110 107 100 93 96 95 88 87 84 75 66 55 53 53 46 40 46 48 37 31 40
70 71 72 74 75 78 81 83 82 81 80 81 77 79 82 85 85 87 91 97 105 106 106 107 102 100 104 104 103 96 96 87 74 65 59 58 58 57 52 47 46 40 35 39
67 68 69 71 73 75 81 80 71 73 71 71 74 77 76 81 83 86 86 87 94 100 105 106 100 101 99 96 96 94 93 90 82 67 64 62 57 51 46 48 48 43 40 40
59 60 62 65 67 69 76 73 65 66 66 66 69 70 66 68 72 77 79 79 90 98 91 95 99 104 101 95 96 91 92 84 78 74 67 64 63 53 49 53 48 42 40 36
55 57 60 62 66 70 74 68 62 61 59 60 64 54 54 61 70 71 73 77 86 83 82 95 94 96 99 100 104 94 89 82 80 74 74 73 61 53 52 51 44 44 39 42
57 59 60 63 66 68 71 65 56 56 49 55 48 54 55 60 67 67 71 72 68 66 92 89 87 88 89 95 99 97 90 88 81 76 77 81 64 61 57 53 46 48 49 46
56 58 59 62 65 67 70 69 58 56 52 54 55 55 56 63 70 69 68 63 66 80 87 83 81 85 85 85 92 92 106 89 81 81 81 72 67 63 64 59 49 49 56 52
57 60 62 65 67 70 71 68 62 62 61 50 53 61 65 66 68 68 64 62 75 79 80 77 76 75 80 81 87 95 98 102 89 85 84 75 69 64 63 63 53 53 57 63
61 63 64 65 65 69 68 68 67 70 67 60 56 57 64 70 68 64 66 71 76 78 75 71 71 69 77 82 86 88 96 95 94 92 87 81 75 74 69 66 51 58 62 65
57 57 59 61 63 65 65 65 68 66 63 55 54 55 59 63 64 63 66 79 77 73 63 59 60 66 72 74 80 82 92 100 101 92 92 82 82 81 80 64 62 64 62 63
47 48 49 51 54 57 58 60 62 62 60 57 53 53 58 57 58 64 67 68 66 56 53 52 58 62 74 71 75 81 87 91 98 83 82 88 86 82 81 73 68 69 67 64
35 37 38 40 43 45 46 52 55 52 53 53 53 53 54 56 57 56 58 56 48 47 49 55 60 63 69 71 68 74 80 87 82 72 80 83 87 86 83 78 75 73 70 63
27 29 31 33 35 37 42 44 42 44 49 49 52 49 49 51 50 49 46 44 40 48 55 54 57 58 66 69 73 75 74 77 78 71 73 74 74 78 77 75 71 71 70 69
19 22 26 28 30 35 38 37 41 45 43 45 48 43 44 43 42 44 42 43 48 53 52 52 53 53 64 68 69 68 68 70 70 68 72 71 69 64 67 66 66 71 72 72
16 19 22 25 27 29 30 31 31 30 34 36 37 37 37 38 40 43 44 47 51 51 49 50 48 51 58 63 63 65 69 73 70 66 68 63 61 59 61 62 65 70 73 70
12 15 17 20 23 25 27 29 29 29 28 28 32 34 32 32 34 38 42 46 46 43 47 49 48 51 55 59 61 58 57 59 62 64 60 58 60 58 59 61 62 65 68 66
18 19 20 22 24 25 24 24 27 29 32 35 36 38 41 41 41 42 45 46 43 44 45 45 41 53 60 58 60 62 64 63 62 60 58 57 60 60 56 60 63 66 68 69
22 21 21 22 22 25 27 27 27 28 29 31 33 35 37 38 38 37 39 41 39 43 42 45 50 47 53 54 59 63 64 62 59 57 56 54 54 58 60 60 61 65 68 70
28 28 26 25 25 25 25 27 29 29 29 29 29 30 31 31 31 34 38 37 38 36 41 47 49 41 44 54 59 61 63 61 58 56 55 55 56 54 59 64 66 68 70 72
27 26 25 25 24 26 27 27 27 26 27 27 29 30 31 32 32 32 30 30 31 34 40 42 45 55 50 55 56 62 62 60 58 58 58 61 65 64 64 67 67 69 71 72
24 24 25 25 25 24 24 24 25 25 25 25 26 26 27 27 26 25 25 26 29 33 38 42 44 40 42 49 57 62 62 62 63 65 66 67 65 65 65 67 69 71 72 73
27 26 24 24 22 22 22 23 23 23 23 23 23 27 27 28 28 29 31 29 29 34 37 33 36 36 41 48 57 63 64 65 66 66 65 64 65 67 68 70 73 75 76 76
25 22 20 19 18 19 20 21 21 21 21 22 23 23 24 23 26 29 30 30 31 32 32 34 39 42 46 52 57 63 65 66 66 66 65 65 66 67 69 73 77 79 79 80
23 21 20 19 19 18 19 19 21 21 21 18 18 19 19 19 19 19 21 22 24 27 32 35 37 40 46 52 59 63 65 67 67 67 66 67 68 70 72 75 79 81 83 85
25 23 20 19 18 17 17 19 20 19 20 19 18 17 18 16 16 14 14 16 22 26 30 35 38 40 44 50 58 64 68 69 68 69 70 71 72 73 75 77 80 83 85 88
27 27 26 23 19 18 21 22 19 23 24 20 18 18 16 16 14 13 15 12 15 17 22 32 40 44 47 53 61 67 69 71 72 72 73 74 76 77 79 82 83 85 87 89
Wind_Direction
256 255 254 253 252 252 252 250 250 249 250 248 249 249 248 246 242 242 242 245 244 246 248 246 247 247 251 254 254 250 254 259 259 256 249 257 261 266 276 279 275 280 288 292
254 254 253 252 252 252 252 251 250 250 250 251 249 247 247 247 246 244 243 246 246 245 248 249 248 247 247 252 253 254 257 258 258 257 254 252 259 260 258 272 279 269 279 286
252 252 251 251 252 251 252 251 250 250 252 253 250 249 249 249 248 245 244 243 245 244 245 247 249 247 247 249 253 253 256 254 256 256 243 245 250 254 265 269 276 266 273 279
251 252 252 253 253 252 252 252 250 250 248 251 249 245 243 245 245 244 245 243 244 245 243 243 243 245 247 247 247 248 248 248 251 239 241 244 248 252 256 264 270 268 271 273
252 252 252 252 253 253 253 250 250 248 247 244 245 245 245 243 248 245 244 241 241 242 241 242 241 240 241 241 243 240 244 243 244 235 234 243 244 248 254 263 266 256 261 268
252 251 251 251 252 253 255 254 251 249 245 242 242 245 242 240 241 240 237 236 237 241 241 240 238 236 237 235 240 240 237 238 239 232 230 235 240 249 252 257 256 251 254 262
251 251 251 252 253 255 256 257 251 246 239 242 244 243 236 237 236 236 235 234 237 235 237 234 236 236 234 236 236 238 238 235 231 227 230 232 238 246 250 253 257 249 253 261
255 254 253 253 254 254 256 257 254 253 244 239 238 243 239 237 235 232 236 230 229 232 234 232 229 230 231 230 233 232 240 234 230 229 231 232 236 245 249 250 251 256 253 257
256 254 252 251 250 250 251 254 253 251 249 242 231 235 235 233 235 233 229 227 231 230 233 230 228 228 227 227 228 231 233 238 231 228 230 234 236 242 248 248 249 256 257 252
251 249 249 249 248 249 250 251 249 251 249 246 241 232 232 233 233 233 229 228 229 230 229 229 227 226 227 223 228 229 232 239 233 229 229 232 235 242 245 250 251 252 253 252
254 252 248 246 244 244 244 245 244 244 246 245 239 233 229 231 231 231 228 229 228 231 228 230 228 222 227 229 227 228 230 232 237 231 231 231 237 242 247 248 246 247 255 257
247 244 241 238 236 236 236 236 237 237 238 237 235 230 229 227 226 225 227 229 230 230 223 222 224 220 221 224 227 227 231 234 240 240 235 236 239 242 245 248 252 258 261 254
241 238 234 230 228 228 226 226 229 229 230 230 230 229 227 223 222 221 225 227 226 224 218 219 220 218 217 220 221 227 227 232 237 239 238 238 239 241 245 248 248 252 256 245
228 225 223 222 220 216 216 220 221 219 220 218 223 221 222 221 218 219 219 218 216 216 217 218 219 215 218 217 215 222 227 230 233 235 238 239 242 242 243 246 249 251 245 242
212 210 208 208 209 208 210 209 209 210 210 212 216 217 217 213 211 211 205 203 206 210 214 215 218 213 219 217 221 223 223 228 231 232 233 235 235 237 241 241 242 243 243 243
196 195 192 193 195 199 203 205 207 205 207 209 209 207 207 204 204 203 199 199 205 208 210 215 217 212 215 218 219 217 219 222 227 230 233 235 236 236 237 233 238 242 246 247
163 175 178 178 180 183 184 186 189 195 196 194 190 190 191 189 191 192 195 199 204 202 208 212 212 213 216 213 214 218 221 221 223 228 233 235 234 229 229 231 233 242 252 252
136 143 153 160 165 167 165 165 169 171 171 174 178 176 180 187 189 189 190 198 201 204 209 212 207 210 213 211 208 211 215 217 220 223 227 228 229 230 226 229 233 238 242 250
121 126 133 142 152 160 163 166 167 167 170 171 176 178 182 186 187 190 194 198 202 207 208 213 217 217 212 205 206 208 213 215 216 220 222 222 224 227 228 231 235 238 240 246
126 128 130 135 138 141 144 148 150 154 157 163 171 178 181 182 187 193 197 196 202 206 213 214 220 215 205 205 208 210 211 214 214 216 216 219 225 229 227 229 232 237 241 246
121 121 125 129 135 140 143 145 147 151 156 165 172 177 179 184 190 195 197 199 203 207 219 218 211 216 202 204 207 212 214 214 212 211 218 225 227 229 231 235 237 240 243 246
108 113 116 121 127 133 137 139 144 151 157 163 170 173 177 182 192 198 203 206 208 212 216 215 214 215 211 206 207 213 214 213 212 215 219 225 229 231 233 236 240 244 247 250
111 114 118 124 130 136 143 151 158 162 166 169 174 185 185 188 194 202 208 209 210 213 217 213 204 200 205 213 210 212 214 214 217 221 223 227 231 234 237 240 243 247 249 253
116 118 123 128 135 140 151 155 162 168 171 174 180 185 190 195 205 203 203 205 212 214 212 203 200 199 203 206 215 218 218 218 221 224 229 233 236 238 240 242 244 247 251 254
107 112 114 118 127 137 140 138 146 156 159 170 173 175 184 196 202 210 201 203 206 202 200 199 205 206 209 212 215 220 222 223 225 229 233 236 239 242 244 246 248 250 253 255
108 111 114 115 120 126 131 135 139 140 143 148 153 167 171 174 182 189 187 200 200 202 202 207 208 210 213 215 217 220 224 227 230 232 234 238 241 245 248 250 251 253 255 257
109 109 112 113 118 125 130 130 137 140 135 136 144 150 160 171 179 183 187 205 206 210 219 218 215 215 217 217 220 224 228 231 233 236 239 241 243 246 249 252 254 256 258 259
Height
10269 10274 10279 10284 10289 10293 10295 10306 10317 10321 10320 10335 10355 10378 10380 10387 10407 10415 10428 10428 10442 10455 10466 10474 10485 10502 10511 10516 10522 10532 10537 10542 10551 10560 10565 10569 10569 10574 10576 10579 10581 10584 10583 10583
10245 10250 10255 10260 10264 10269 10271 10279 10287 10294 10299 10323 10342 10346 10354 10360 10378 10389 10404 10401 10419 10429 10440 10446 10467 10481 10495 10489 10496 10514 10517 10529 10536 10545 10557 10561 10562 10562 10563 10569 10573 10577 10576 10570
10222 10227 10231 10236 10240 10245 10246 10251 10263 10275 10290 10300 10318 10327 10333 10337 10350 10363 10372 10382 10381 10399 10417 10427 10442 10454 10464 10473 10485 10497 10499 10510 10528 10537 10541 10543 10548 10548 10554 10558 10564 10565 10568 10562
10200 10205 10210 10213 10218 10220 10216 10225 10252 10260 10275 10284 10287 10292 10306 10311 10322 10332 10344 10359 10365 10375 10382 10399 10422 10428 10440 10452 10466 10473 10476 10495 10510 10518 10522 10529 10534 10537 10543 10549 10552 10558 10556 10559
10181 10186 10189 10192 10195 10195 10189 10207 10231 10239 10247 10259 10263 10273 10291 10300 10302 10309 10324 10340 10339 10335 10362 10378 10394 10402 10421 10432 10439 10454 10459 10479 10490 10498 10507 10513 10518 10527 10533 10539 10542 10546 10546 10550
10161 10165 10169 10172 10174 10174 10174 10189 10208 10218 10232 10237 10241 10266 10274 10275 10270 10285 10295 10304 10303 10330 10354 10340 10354 10376 10397 10412 10413 10434 10441 10460 10470 10487 10490 10494 10505 10520 10520 10526 10529 10533 10537 10537
10141 10146 10150 10153 10155 10158 10158 10168 10185 10192 10213 10216 10236 10238 10247 10251 10253 10261 10272 10287 10310 10326 10287 10314 10339 10358 10374 10386 10398 10412 10427 10437 10450 10465 10468 10472 10509 10504 10508 10512 10517 10521 10525 10525
10123 10128 10133 10136 10139 10142 10143 10147 10163 10172 10186 10201 10210 10222 10231 10229 10230 10246 10257 10279 10285 10263 10270 10298 10316 10330 10350 10370 10384 10403 10394 10419 10433 10445 10454 10474 10487 10492 10492 10497 10507 10508 10512 10514
10103 10107 10111 10116 10121 10122 10125 10134 10144 10150 10159 10175 10198 10198 10201 10210 10218 10229 10247 10256 10246 10246 10260 10284 10298 10318 10337 10352 10366 10378 10390 10392 10416 10430 10440 10460 10474 10477 10475 10480 10498 10494 10497 10500
10081 10085 10090 10096 10102 10105 10113 10118 10127 10128 10139 10157 10173 10186 10190 10191 10202 10216 10228 10229 10229 10232 10252 10271 10292 10313 10319 10337 10347 10363 10373 10377 10395 10412 10426 10446 10458 10458 10455 10470 10489 10477 10474 10485
10062 10066 10071 10077 10084 10088 10094 10104 10107 10118 10126 10140 10152 10163 10172 10177 10187 10202 10212 10200 10213 10229 10256 10269 10286 10302 10308 10327 10340 10351 10356 10358 10366 10394 10412 10436 10439 10444 10445 10460 10457 10454 10466 10475
10044 10048 10054 10060 10066 10072 10080 10088 10094 10103 10113 10123 10133 10143 10150 10157 10166 10179 10188 10203 10212 10237 10250 10262 10268 10285 10292 10311 10321 10335 10341 10352 10357 10381 10406 10415 10421 10431 10434 10441 10447 10450 10457 10463
10030 10034 10040 10047 10053 10061 10070 10075 10080 10093 10103 10111 10119 10128 10135 10144 10154 10171 10185 10198 10215 10229 10241 10246 10250 10263 10277 10288 10305 10315 10330 10336 10354 10371 10383 10391 10400 10408 10414 10422 10429 10432 10441 10451
10021 10026 10031 10037 10044 10052 10059 10066 10075 10084 10090 10101 10106 10115 10126 10138 10152 10167 10179 10192 10208 10215 10223 10235 10243 10257 10265 10281 10293 10298 10317 10326 10340 10359 10368 10379 10387 10396 10401 10409 10415 10418 10423 10433
10015 10020 10026 10031 10038 10045 10051 10060 10067 10072 10084 10095 10101 10115 10127 10139 10151 10160 10172 10185 10194 10203 10215 10228 10237 10251 10255 10266 10278 10291 10302 10319 10330 10345 10347 10357 10366 10381 10388 10394 10399 10399 10408 10416
10014 10018 10024 10029 10035 10043 10051 10058 10067 10077 10085 10094 10104 10114 10125 10135 10145 10155 10167 10177 10186 10199 10211 10219 10230 10240 10246 10257 10270 10283 10289 10299 10313 10328 10336 10349 10360 10370 10379 10383 10384 10387 10392 10403
10015 10020 10025 10031 10038 10044 10051 10058 10067 10076 10085 10095 10104 10113 10124 10136 10146 10155 10164 10174 10185 10196 10205 10211 10220 10228 10236 10247 10258 10274 10285 10294 10308 10321 10334 10344 10353 10358 10364 10372 10376 10377 10378 10388
10016 10022 10027 10032 10038 10046 10055 10062 10069 10075 10083 10091 10101 10112 10122 10131 10140 10150 10160 10169 10180 10190 10198 10207 10215 10217 10223 10237 10251 10261 10269 10282 10296 10309 10320 10330 10337 10344 10353 10357 10361 10366 10369 10370
10023 10027 10032 10037 10044 10049 10054 10061 10069 10078 10087 10096 10106 10116 10123 10130 10140 10151 10159 10168 10177 10184 10194 10201 10204 10212 10224 10237 10244 10252 10262 10272 10286 10298 10311 10320 10326 10332 10339 10344 10349 10352 10354 10356
10029 10033 10039 10045 10051 10057 10063 10069 10076 10084 10093 10101 10110 10118 10125 10134 10143 10149 10157 10167 10175 10182 10188 10193 10199 10207 10222 10232 10240 10246 10254 10266 10278 10289 10300 10308 10315 10324 10328 10329 10334 10338 10341 10343
10040 10043 10047 10052 10058 10063 10069 10075 10083 10090 10097 10104 10111 10118 10126 10133 10140 10149 10158 10167 10175 10181 10184 10189 10196 10198 10212 10225 10234 10242 10250 10259 10270 10280 10289 10296 10302 10310 10314 10317 10321 10323 10325 10326
10052 10055 10059 10063 10067 10072 10077 10084 10090 10096 10102 10107 10114 10121 10128 10136 10143 10151 10157 10164 10170 10175 10180 10187 10195 10208 10220 10224 10230 10237 10245 10253 10261 10269 10277 10284 10291 10296 10300 10303 10305 10307 10308 10309
10058 10062 10065 10068 10073 10078 10083 10088 10094 10099 10105 10111 10118 10122 10129 10135 10143 10148 10153 10160 10166 10169 10174 10185 10194 10204 10213 10221 10226 10232 10238 10244 10251 10259 10266 10272 10277 10282 10285 10288 10289 10290 10291 10291
10066 10069 10073 10077 10080 10084 10088 10094 10099 10104 10110 10115 10120 10126 10131 10137 10141 10147 10152 10159 10161 10169 10176 10181 10188 10197 10204 10211 10221 10226 10230 10236 10243 10249 10254 10259 10264 10267 10269 10271 10273 10273 10274 10274
10075 10077 10079 10082 10086 10089 10093 10098 10103 10108 10113 10118 10123 10128 10133 10137 10142 10147 10154 10159 10162 10166 10173 10179 10187 10196 10201 10206 10211 10219 10224 10228 10233 10238 10242 10245 10247 10250 10252 10254 10255 10255 10255 10255
10083 10085 10088 10091 10093 10095 10098 10102 10105 10111 10115 10120 10125 10130 10134 10138 10142 10146 10151 10158 10162 10167 10173 10178 10184 10190 10195 10200 10205 10210 10212 10216 10220 10222 10225 10229 10231 10232 10234 10235 10235 10235 10235 10234
10092 10094 10097 10099 10100 10101 10103 10107 10112 10114 10117 10121 10126 10132 10135 10140 10144 10148 10152 10157 10161 10167 10171 10175 10178 10181 10185 10189 10193 10196 10199 10202 10204 10208 10210 10212 10213 10214 10215 10214 10214 10213 10212 10212